sat.trackr.live / text

‹ back to catalog

AETHER-12

NORAD 67383 · 2026-004W

PAYLOAD ACTIVE UNKNOWN

§ Identity

Operator
Country
CA
Launch date
2026-01-11
Launch site
AFWTR
Launch vehicle
Mass (kg)
RCS (m²)

External: N2YO · Heavens-Above · Gunter

§ Orbital elements

Epoch: 2026-05-24T23:52:45.997248Z

Period
96.88 min
Inclination
97.8007°
Eccentricity
0.0003437
Mean motion
14.86303591 rev/d
Perigee alt
607.1 km
Apogee alt
611.9 km
Semi-major
6,987.6 km
B*
6.6862e-5
RAAN
143.9151°
Arg perigee
175.3661°
Mean anomaly
184.7587°
Rev number
1,983

§ Raw data

AETHER-121 67383U 26004W   26144.99497682  .00000535  00000+0  66862-4 0  99942 67383  97.8007 143.9151 0003437 175.3661 184.7587 14.86303591 19831

JSON: /api/v1/satellites/67383 · /tle

For live sub-satellite position, see the globe view (requires WebGL).

§ Visibility from observer

Set your observer location to see the next 7 days of passes ≥ 10°. The values pass through the URL so the page stays shareable.

No JS? Fill the form by hand. The geolocation button needs JavaScript.